Location: Long Point Provincial Park
(42.5794°N, 80.4103°W)
Time: 13:49:20
(UTC-04:00)

ISS - Visible Passes

Search period start: 24 May 2018 00:00
Search period end: 03 June 2018 00:00
Orbit: 402 x 407 km, 51.6° (Epoch: 25 May)

Date Brightness Start Highest point End Pass type
(mag) Time Alt. Az. Time Alt. Az. Time Alt. Az.
24 May -1.2 01:34:02 10° NW 01:36:37 21° NNE 01:37:42 18° NE visible
24 May -3.3 21:26:38 10° WSW 21:29:53 64° NNW 21:33:08 10° NE visible
24 May -1.0 23:04:21 10° WNW 23:06:50 20° NNW 23:09:19 10° NE visible
25 May -0.9 00:41:51 10° NW 00:44:12 18° N 00:46:03 12° NE visible
25 May -1.0 02:18:05 10° NW 02:18:39 14° NW 02:18:39 14° NW visible
25 May -1.3 22:11:40 10° WNW 22:14:25 24° NNW 22:17:11 10° NE visible
25 May -0.8 23:49:31 10° NW 23:51:44 17° N 23:53:56 10° NE visible
26 May -1.4 01:25:59 10° NW 01:27:40 22° NNW 01:27:40 22° NNW visible
26 May -1.9 21:19:02 10° W 21:22:03 33° NNW 21:25:05 10° NE visible
26 May -0.8 22:57:01 10° NW 22:59:15 17° N 23:01:28 10° NE visible
27 May -1.5 00:33:53 10° NW 00:36:34 23° NNE 00:36:53 22° NNE visible
27 May -1.0 22:04:21 10° WNW 22:06:45 19° N 22:09:09 10° NE visible
27 May -1.1 23:41:41 10° NW 23:44:07 19° N 23:46:11 12° NE visible
28 May -1.2 01:17:54 10° NW 01:18:48 17° NW 01:18:48 17° NW visible
28 May -1.0 22:49:22 10° NW 22:51:37 17° N 22:53:51 10° NE visible
29 May -2.0 00:25:44 10° NW 00:28:08 31° N 00:28:08 31° N visible
29 May -1.0 21:56:53 10° NW 21:59:06 17° N 22:01:18 10° NE visible
29 May -1.8 23:33:36 10° NW 23:36:23 25° NNE 23:37:30 20° NE visible
30 May -0.9 01:09:51 10° WNW 01:10:08 12° WNW 01:10:08 12° WNW visible
30 May -1.4 22:41:24 10° NW 22:43:54 20° NNE 22:46:25 10° ENE visible
31 May -2.1 00:17:35 10° NW 00:19:33 33° NW 00:19:33 33° NW visible
31 May -1.2 21:49:06 10° NW 21:51:23 17° N 21:53:40 10° NE visible
31 May -2.8 23:25:23 10° NW 23:28:30 40° NNE 23:28:58 37° NE visible
01 Jun -2.0 22:33:12 10° NW 22:36:05 28° NNE 22:38:25 13° ENE visible
02 Jun -1.9 00:09:31 10° WNW 00:11:02 24° WNW 00:11:02 24° WNW visible
02 Jun -1.6 21:40:59 10° NW 21:43:35 21° NNE 21:46:11 10° ENE visible
02 Jun -3.9 23:17:10 10° NW 23:20:27 82° NNE 23:20:31 81° ENE visible
